Notices

What's New in latest Release from April 7th, 2021:

- Updated Glossary, including Speed of Maximum Gust, and Total Hourly Precipitation

- Updated national and regional climate services offices contacts and prices information

- Addition of station inventory lists for 1981-2010, 1971-2000, and 1961-1990 Normals.

If you haven't already, please take our survey and provide feedback about our website: https://eccc.sondage-survey.ca/f/LanguageSelection.aspx?s=442ca660-fcf1-47c0-95a9-59707d6fd709

Hourly Data Report for November 03, 2017

CARBERRY CS
MANITOBA

49°54'20.900" N
99°21'26.800" W
383.50 m
5010547
71170
WZE

Download Data

Hourly Data (November 2017)
Hourly Data Report for November 3, 2017
TIME
LST
Temp Definition
°C
Dew Point Definition
°C
Rel Hum Definition
%
Precip. Amount Definition
mm

Wind Dir Definition
10's deg

Wind Spd Definition
km/h
Visibility Definition
km
Stn Press Definition
kPa
Hmdx Definition


Wind Chill Definition


Weather Definition


00:00 -13.4 -15.0 88 0.0 35 5   98.25   -17 LegendNANA
01:00 -12.0 -13.5 89 0.0 26 5   98.30   -15 LegendNANA
02:00 -11.4 -13.2 86 0.2 30 3   98.30   -13 LegendNANA
03:00 -11.4 -13.0 88 0.0 3 1   98.30   -12 LegendNANA
04:00 -10.5 -12.1 88 0.0 2 3   98.28   -12 LegendNANA
05:00 -10.6 -12.1 89 0.0 12 1   98.30   -11 LegendNANA
06:00 -10.1 -11.5 89 0.0 10 5   98.31   -13 LegendNANA
07:00 -8.5 -10.0 89 0.0 8 7   98.29   -12 LegendNANA
08:00 -8.3 -10.4 84 0.0 10 8   98.29   -12 LegendNANA
09:00 -6.5 -9.0 83 0.0 12 9   98.32   -11 LegendNANA
10:00 -6.0 -8.8 81 0.0 13 13   98.31   -11 LegendNANA
11:00 -4.5 -7.7 78 0.0 11 14   98.31   -10 LegendNANA
12:00 -3.7 -7.8 73 0.0 12 17   98.25   -9 LegendNANA
13:00 -3.4 -8.7 67 0.0 12 19   98.21   -9 LegendNANA
14:00 -3.5 -9.4 63 0.0 12 18   98.17   -9 LegendNANA
15:00 -3.8 -9.4 65 0.0 10 17   98.11   -10 LegendNANA
16:00 -4.5 -9.8 67 0.0 9 17   98.09   -10 LegendNANA
17:00 -4.9 -9.3 71 0.0 10 17   98.06   -11 LegendNANA
18:00 -5.1 -8.8 76 0.0 9 12   98.00   -10 LegendNANA
19:00 -5.4 -9.0 76 0.0 9 17   97.92   -11 LegendNANA
20:00 -5.8 -8.4 82 0.0 10 16   97.88   -12 LegendNANA
21:00 -5.7 -7.8 85 0.0 11 16   97.81   -12 LegendNANA
22:00 -5.3 -7.1 87 0.0 9 14   97.80   -11 LegendNANA
23:00 -5.0 -6.8 87 0.0 9 16   97.70   -11 LegendNANA

Notes on Data Quality.

Legend

  • E = Estimated
  • M = Missing
  • NA = Not Available*
  • [empty] = Indicates an unobserved value
Date modified: